Location: Marion Hill
(40.7303°N, 80.2959°W)
Time: 22:49:11
(UTC+00:00)

Cosmos 1825 - Pass Details

Date: 29 October 2020
Orbit: 501 x 508 km, 82.5° (Epoch: 29 November)

Event Time Altitude Azimuth Distance (km) Brightness Sun altitude
Rises 23:30:42 0° 3° (N) 2,620 5.7 -13.8°
Reaches altitude 10° 23:33:03 10° 15° (NNE) 1,729 4.6 -14.3°
Maximum altitude 23:36:23 29° 77° (ENE) 951 2.9 -14.9°
Enters shadow 23:36:47 28° 89° (E) 966 3.0 -15.0°
